Location: ????????
(54.9045°N, 39.1041°E)
Time: 19:12:27
(UTC+00:00)

NOSS 2-3 (D) - Pass Details

Date: 28 July 2024
Orbit: 497 x 1701 km, 63.3° (Epoch: 24 April)

Event Time Altitude Azimuth Distance (km) Brightness Sun altitude
Rises 22:59:06 0° 309° (NW) 3,080 7.4 -14.0°
Reaches altitude 10° 23:01:11 10° 306° (NW) 2,288 6.6 -13.9°
Maximum altitude 23:06:22 62° 227° (SW) 1,034 4.4 -13.6°
Drops below altitude 10° 23:13:25 10° 149° (SSE) 3,078 6.8 -13.2°
Sets 23:16:37 0° 146° (SE) 4,234 7.5 -13.0°
